Regional Weather Roundup
Issued by NWS

Home | Current Version | Previous Version | Text Only | Print | Product List | Glossary On
Versions: 1 2 3 4 5 6 7 8 9 10 11 12 13 14 15 16 17 18 19 20 21 22 23 24 25 26 27 28 29 30 31 32 33 34 35 36 37 38 39 40 41 42 43 44 45 46 47 48 49 50
000
ASUS43 KLOT 241608
RWRIL

ILLINOIS REGIONAL WEATHER ROUNDUP
NATIONAL WEATHER SERVICE CHICAGO/ROMEOVILLE IL
1100 AM CDT TUE MAY 24 2016

NOTE: "FAIR" INDICATES FEW OR NO CLOUDS BELOW 12,000 FEET WITH NO
SIGNIFICANT WEATHER AND/OR OBSTRUCTIONS TO VISIBILITY.

* THESE STATIONS ARE NOT UNDER NWS QUALITY CONTROL. THEY ALSO MAY NOT
  REPORT WEATHER SUCH AS PRECIPITATION OR FOG.

ILZ001-002-007-009-015-016-024-241700-
NORTHWEST ILLINOIS

CITY           SKY/WX    TMP DP  RH WIND       PRES   REMARKS
MOLINE         MOSUNNY   80  60  50 S12G20    29.94F HX  81
STERLING*      SUNNY     80  60  50 SW8       29.97F HX  81
SAVANNA*       CLOUDY    78  60  52 S10       29.94F
$$

ILZ003-004-008-010-011-017-018-241700-
NORTH CENTRAL ILLINOIS

CITY           SKY/WX    TMP DP  RH WIND       PRES   REMARKS
ROCKFORD       MOSUNNY   80  59  48 S10       29.98S HX  81
FREEPORT*      SUNNY     77  60  55 S14       29.98S
ROCHELLE*      SUNNY     79  59  50 SW9       29.99S HX  80
DE KALB*       SUNNY     78  62  57 S9G20     30.00S HX  80
$$

ILZ005-006-012>014-019>023-241700-
NORTHEAST ILLINOIS

CITY           SKY/WX    TMP DP  RH WIND       PRES   REMARKS
CHICAGO-OHARE  PTSUNNY   78  55  44 S15       29.99S
CHICAGO-MIDWAY PTSUNNY   81  52  36 SW15      30.00S HX  80
AURORA         SUNNY     80  58  46 SW15      29.99S HX  80
LANSING*       SUNNY     79  49  35 SW14G21   30.02S
JOLIET*        SUNNY     82  56  41 S13G18    30.00S HX  81
WAUKEGAN       SUNNY     79  56  45 S16       29.97F HX  80
DUPAGE AIRPORT SUNNY     79  56  45 SW10      29.99S HX  80
KANKAKEE*      SUNNY    N/A N/A N/A SW12G18   30.02S
WHEELING       SUNNY     79  55  43 SW8       29.99F
MORRIS*        SUNNY     82  53  36 SW12G17   29.99S HX  81
ROMEOVILLE*    SUNNY     80  48  32 SW14      30.01S
NORTHERLY ISL    N/A     78  46  32 SW13        N/A
NORTHERLY ISL    N/A     78  46  32 SW13        N/A
$$

LMZ740>746-241700-
SOUTHERN LAKE MICHIGAN

STATION/POSITION SKY/WX   TEMP    WIND        PRES    VSBY  WAVE
                          AIR SEA DIR/SP/G                  HT/PER
                          (F)     (DEG/KT/KT) (MB)    (MI)  (FT/S)
SOUTHERN BUOY              53 47  170/ 12/ 12 1015.6R         1
WILMETTE HARBOR            60 55  160/  8/ 10   N/A           1
HARRISON CRIB              70     190/  8/  9   N/A
BURNHAM HARBOR             79     180/  9/ 16   N/A
CALUMET HARBOR             75     200/  8/ 13 1015.6F
BURNS HARBOR               74     220/  9/ 12 1016.9S
MICHIGAN CITY              73     230/  5/  5   N/A
MICHIGAN CITY 6N           69 58  260/  2/  2   N/A           0
ST. JOSEPH                 65 58  200/  2/  4   N/A           1
$$

ILZ025>027-034>036-040-047-049-050-058-095>099-241700-
WEST-CENTRAL ILLINOIS

CITY           SKY/WX    TMP DP  RH WIND       PRES   REMARKS
QUINCY         MOSUNNY   77  61  57 S13       30.00R
GALESBURG*     SUNNY     78  60  54 S10G16    29.98S
MACOMB*        SUNNY     79  58  48 S10G17    30.00S HX  80
JACKSONVILLE*  SUNNY     78  59  52 S9        30.00S
PITTSFIELD*    SUNNY     77  61  58 S8        30.01S
$$

ILZ028>032-037-038-041>044-048-051>054-059>061-241700-
CENTRAL ILLINOIS

CITY           SKY/WX    TMP DP  RH WIND       PRES   REMARKS
PONTIAC        MOSUNNY   82  53  36 SW13      30.02R HX  81
BLOOMINGTON    SUNNY     81  56  42 S17       30.02F HX  81
DECATUR        SUNNY     80  56  43 S14G21    30.02F HX  80
PEORIA         SUNNY     78  58  49 S6        30.00S
LACON*         SUNNY     77  59  53 SW8       29.99F
LINCOLN*       SUNNY     81  58  46 S10G18    30.00F HX  81
SPRINGFIELD    SUNNY     79  59  50 S15       30.00F HX  80
TAYLORVILLE    SUNNY     79  55  43 S17       30.02F
$$

ILZ033-039-045-046-055>057-062-063-241700-
EAST-CENTRAL ILLINOIS

CITY           SKY/WX    TMP DP  RH WIND       PRES   REMARKS
CHAMPAIGN      SUNNY     83  49  30 S15G23    30.05R HX  81
RANTOUL*       SUNNY     84  54  36 SW13      30.04S HX  82
MATTOON        SUNNY     78  54  43 S9        30.06R
PARIS*         SUNNY     81  55  40 SW8       30.07S HX  80
$$

ILZ079-100>102-241700-
SOUTHWEST ILLINOIS

CITY           SKY/WX    TMP DP  RH WIND       PRES   REMARKS
ALTON          PTSUNNY   72  61  68 S12       30.03S
BELLEVILLE     CLOUDY    72  63  73 VRB2      30.03S
CAHOKIA*       CLOUDY    73  60  63 S7        30.02S
SPARTA*        CLOUDY    74  60  60 S10       30.05S
$$

ILZ064>066-069>071-074>076-080>082-084>086-088>090-092>094-241700-
SOUTH-CENTRAL ILLINOIS

CITY           SKY/WX    TMP DP  RH WIND       PRES   REMARKS
CARBONDALE     CLOUDY    72  59  63 S6        30.06R
CAIRO*         CLOUDY    76  61  60 S5        30.06F
EFFINGHAM*     PTSUNNY   77  59  53 SE8       30.08R
MARION         CLOUDY    73  61  64 S7        30.08R
MT. VERNON     CLOUDY    72  59  64 S6        30.08R
CENTRALIA*     CLOUDY    73  62  67 S12       30.05S
SALEM*         CLOUDY    77  57  50 S8        30.06R
METROPOLIS*    CLOUDY    73  63  70 CALM      30.08S
$$

ILZ067-068-072-073-078-083-087-091-241700-
SOUTHEAST ILLINOIS

CITY           SKY/WX    TMP DP  RH WIND       PRES   REMARKS
LAWRENCEVILLE  SUNNY     79  57  46 S10       30.09R HX  80
FLORA*         PTSUNNY   81  57  43 S12       30.07R HX  81
FAIRFIELD*     CLOUDY    77  56  48 S7        30.07R
HARRISBURG*    CLOUDY    73  62  67 S7        30.09R
ROBINSON*      SUNNY     77  59  53 S5        30.09R
CARMI*         CLOUDY    73  61  64 S8        30.08R
$$

ABBREVIATIONS USED IN REMARKS
   TC - TEMPERATURE IN CELSIUS
  WCI - WIND CHILL INDEX
   HX - HEAT INDEX
  VSB - VISIBILITY
$$




USA.gov is the U.S. government's official web portal to all federal, state and local government web resources and services.